Time,TemperatureF,DewpointF,PressureIn,WindDirection,WindDirectionDegrees,WindSpeedMPH,WindSpeedGustMPH,Humidity,HourlyPrecipIn,Conditions,Clouds,dailyrainin,SoftwareType,DateUTC
2015-07-06 00:13:00,59.4,53.0,30.20,SW,215,4.0,4.0,78,0.00,,,0.00,weatherlink.com 1.10,2015-07-06 04:13:00,
2015-07-06 00:28:00,57.8,52.0,30.20,SSW,208,3.0,4.0,82,0.00,,,0.00,weatherlink.com 1.10,2015-07-06 04:28:00,
2015-07-06 00:44:00,57.5,52.0,30.20,SW,231,2.0,2.0,81,0.00,,,0.00,weatherlink.com 1.10,2015-07-06 04:44:00,
2015-07-06 00:59:00,58.1,51.0,30.20,SW,217,3.0,4.0,78,0.00,,,0.00,weatherlink.com 1.10,2015-07-06 04:59:00,
2015-07-06 01:14:00,57.5,51.0,30.20,SW,225,0.0,3.0,80,0.00,,,0.00,weatherlink.com 1.10,2015-07-06 05:14:00,
2015-07-06 01:29:00,56.1,51.0,30.20,SW,217,1.0,1.0,84,0.00,,,0.00,weatherlink.com 1.10,2015-07-06 05:29:00,
2015-07-06 01:44:00,55.0,51.0,30.20,SSW,203,1.0,3.0,85,0.00,,,0.00,weatherlink.com 1.10,2015-07-06 05:44:00,
2015-07-06 01:59:00,54.3,51.0,30.20,SSW,206,1.0,3.0,87,0.00,,,0.00,weatherlink.com 1.10,2015-07-06 05:59:00,
2015-07-06 02:14:00,54.9,51.0,30.20,SW,217,3.0,4.0,86,0.00,,,0.00,weatherlink.com 1.10,2015-07-06 06:14:00,
2015-07-06 02:29:00,55.3,51.0,30.20,SW,215,3.0,4.0,86,0.00,,,0.00,weatherlink.com 1.10,2015-07-06 06:29:00,
2015-07-06 02:44:00,54.3,51.0,30.20,SSW,200,3.0,4.0,88,0.00,,,0.00,weatherlink.com 1.10,2015-07-06 06:44:00,
2015-07-06 02:59:00,53.7,51.0,30.21,SSW,199,2.0,5.0,90,0.00,,,0.00,weatherlink.com 1.10,2015-07-06 06:59:00,
2015-07-06 03:14:00,54.3,52.0,30.21,SW,217,1.0,4.0,91,0.00,,,0.00,weatherlink.com 1.10,2015-07-06 07:14:00,
2015-07-06 03:29:00,53.7,51.0,30.20,South,188,2.0,5.0,91,0.00,,,0.00,weatherlink.com 1.10,2015-07-06 07:29:00,
2015-07-06 03:44:00,53.2,51.0,30.20,SSW,211,4.0,4.0,92,0.00,,,0.00,weatherlink.com 1.10,2015-07-06 07:44:00,
2015-07-06 03:59:00,54.3,52.0,30.20,SW,224,2.0,3.0,92,0.00,,,0.00,weatherlink.com 1.10,2015-07-06 07:59:00,
2015-07-06 04:14:00,55.6,53.0,30.20,SSW,211,2.0,4.0,90,0.00,,,0.00,weatherlink.com 1.10,2015-07-06 08:14:00,
2015-07-06 04:29:00,58.5,53.0,30.19,SW,224,3.0,4.0,83,0.00,,,0.00,weatherlink.com 1.10,2015-07-06 08:29:00,
2015-07-06 04:44:00,57.5,53.0,30.19,SSW,210,5.0,6.0,85,0.00,,,0.00,weatherlink.com 1.10,2015-07-06 08:44:00,
2015-07-06 04:59:00,58.7,53.0,30.20,SW,219,5.0,7.0,82,0.00,,,0.00,weatherlink.com 1.10,2015-07-06 08:59:00,
2015-07-06 05:14:00,58.6,52.0,30.20,SSW,210,5.0,5.0,79,0.00,,,0.00,weatherlink.com 1.10,2015-07-06 09:14:00,
2015-07-06 05:29:00,59.1,51.0,30.20,SSW,203,2.0,6.0,75,0.00,,,0.00,weatherlink.com 1.10,2015-07-06 09:29:00,
2015-07-06 05:44:00,59.0,51.0,30.20,SSW,210,4.0,5.0,75,0.00,,,0.00,weatherlink.com 1.10,2015-07-06 09:44:00,
2015-07-06 05:59:00,59.6,52.0,30.20,SSW,204,3.0,6.0,75,0.00,,,0.00,weatherlink.com 1.10,2015-07-06 09:59:00,
2015-07-06 06:14:00,60.4,52.0,30.20,SW,224,4.0,5.0,74,0.00,,,0.00,weatherlink.com 1.10,2015-07-06 10:14:00,
2015-07-06 06:29:00,61.3,53.0,30.20,SSW,212,3.0,4.0,73,0.00,,,0.00,weatherlink.com 1.10,2015-07-06 10:29:00,
2015-07-06 06:44:00,61.7,53.0,30.20,SW,221,4.0,5.0,74,0.00,,,0.00,weatherlink.com 1.10,2015-07-06 10:44:00,
2015-07-06 06:59:00,62.5,54.0,30.20,SW,215,3.0,5.0,74,0.00,,,0.00,weatherlink.com 1.10,2015-07-06 10:59:00,
2015-07-06 07:14:00,63.8,55.0,30.20,SW,221,2.0,6.0,73,0.00,,,0.00,weatherlink.com 1.10,2015-07-06 11:14:00,
2015-07-06 07:29:00,64.7,56.0,30.20,SSW,206,3.0,5.0,73,0.00,,,0.00,weatherlink.com 1.10,2015-07-06 11:29:00,
2015-07-06 07:44:00,65.9,57.0,30.21,SSW,201,1.0,4.0,72,0.00,,,0.00,weatherlink.com 1.10,2015-07-06 11:44:00,
2015-07-06 08:00:00,67.0,57.0,30.21,South,186,2.0,5.0,71,0.00,,,0.00,weatherlink.com 1.10,2015-07-06 12:00:00,
2015-07-06 08:15:00,68.6,60.0,30.21,SSW,200,2.0,3.0,73,0.00,,,0.00,weatherlink.com 1.10,2015-07-06 12:15:00,
2015-07-06 08:30:00,69.7,60.0,30.22,WSW,249,4.0,4.0,70,0.00,,,0.00,weatherlink.com 1.10,2015-07-06 12:30:00,
2015-07-06 08:45:00,70.1,60.0,30.23,WSW,240,4.0,5.0,71,0.00,,,0.00,weatherlink.com 1.10,2015-07-06 12:45:00,
2015-07-06 09:00:00,71.3,60.0,30.22,SSW,201,3.0,4.0,68,0.00,,,0.00,weatherlink.com 1.10,2015-07-06 13:00:00,
2015-07-06 09:15:00,72.0,60.0,30.22,WSW,243,1.0,5.0,67,0.00,,,0.00,weatherlink.com 1.10,2015-07-06 13:15:00,
2015-07-06 09:30:00,72.8,61.0,30.22,WSW,242,2.0,6.0,67,0.00,,,0.00,weatherlink.com 1.10,2015-07-06 13:30:00,
2015-07-06 09:45:00,73.4,60.0,30.22,SW,226,1.0,4.0,63,0.00,,,0.00,weatherlink.com 1.10,2015-07-06 13:45:00,
2015-07-06 10:00:00,76.0,61.0,30.21,ESE,108,0.0,2.0,61,0.00,,,0.00,weatherlink.com 1.10,2015-07-06 14:00:00,
2015-07-06 10:15:00,73.5,63.0,30.21,ENE,71,2.0,4.0,69,0.00,,,0.00,weatherlink.com 1.10,2015-07-06 14:15:00,
2015-07-06 10:30:00,73.0,63.0,30.21,East,82,5.0,6.0,70,0.00,,,0.00,weatherlink.com 1.10,2015-07-06 14:30:00,
2015-07-06 10:45:00,73.0,63.0,30.21,SE,124,2.0,4.0,71,0.00,,,0.00,weatherlink.com 1.10,2015-07-06 14:45:00,
2015-07-06 11:00:00,74.2,63.0,30.21,SE,124,4.0,6.0,68,0.00,,,0.00,weatherlink.com 1.10,2015-07-06 15:00:00,
2015-07-06 11:15:00,74.6,64.0,30.21,East,85,2.0,7.0,69,0.00,,,0.00,weatherlink.com 1.10,2015-07-06 15:15:00,
2015-07-06 11:30:00,75.1,63.0,30.22,ENE,72,1.0,4.0,67,0.00,,,0.00,weatherlink.com 1.10,2015-07-06 15:30:00,
2015-07-06 11:45:00,75.5,62.0,30.22,SE,127,1.0,5.0,64,0.00,,,0.00,weatherlink.com 1.10,2015-07-06 15:45:00,
2015-07-06 12:00:00,75.1,63.0,30.22,ESE,116,2.0,7.0,67,0.00,,,0.00,weatherlink.com 1.10,2015-07-06 16:00:00,
2015-07-06 12:15:00,76.0,63.0,30.21,ENE,71,3.0,6.0,65,0.00,,,0.00,weatherlink.com 1.10,2015-07-06 16:15:00,
2015-07-06 12:30:00,76.1,62.0,30.21,ESE,109,0.0,8.0,61,0.00,,,0.00,weatherlink.com 1.10,2015-07-06 16:30:00,
2015-07-06 12:45:00,76.5,62.0,30.21,South,180,2.0,8.0,61,0.00,,,0.00,weatherlink.com 1.10,2015-07-06 16:45:00,
2015-07-06 13:00:00,76.9,62.0,30.19,SSE,162,5.0,8.0,60,0.00,,,0.00,weatherlink.com 1.10,2015-07-06 17:00:00,
2015-07-06 13:15:00,77.7,61.0,30.19,SSE,155,6.0,9.0,57,0.00,,,0.00,weatherlink.com 1.10,2015-07-06 17:15:00,
2015-07-06 13:30:00,78.5,62.0,30.18,SSE,159,1.0,8.0,57,0.00,,,0.00,weatherlink.com 1.10,2015-07-06 17:30:00,
2015-07-06 13:45:00,78.8,63.0,30.18,SW,222,6.0,6.0,59,0.00,,,0.00,weatherlink.com 1.10,2015-07-06 17:45:00,
2015-07-06 14:01:00,78.4,62.0,30.18,SE,124,5.0,8.0,57,0.00,,,0.00,weatherlink.com 1.10,2015-07-06 18:01:00,
2015-07-06 14:16:00,78.4,63.0,30.17,ESE,106,1.0,8.0,59,0.00,,,0.00,weatherlink.com 1.10,2015-07-06 18:16:00,
2015-07-06 14:31:00,77.9,62.0,30.17,ENE,68,4.0,9.0,59,0.00,,,0.00,weatherlink.com 1.10,2015-07-06 18:31:00,
2015-07-06 14:46:00,78.1,62.0,30.16,SSE,158,5.0,9.0,57,0.00,,,0.00,weatherlink.com 1.10,2015-07-06 18:46:00,
2015-07-06 15:01:00,78.1,62.0,30.15,ESE,103,6.0,12.0,59,0.00,,,0.00,weatherlink.com 1.10,2015-07-06 19:01:00,
2015-07-06 15:16:00,78.5,62.0,30.14,SE,127,10.0,11.0,58,0.00,,,0.00,weatherlink.com 1.10,2015-07-06 19:16:00,
2015-07-06 15:31:00,79.0,63.0,30.13,SE,131,8.0,11.0,59,0.00,,,0.00,weatherlink.com 1.10,2015-07-06 19:31:00,
2015-07-06 15:46:00,79.0,63.0,30.13,SSE,155,8.0,11.0,58,0.00,,,0.00,weatherlink.com 1.10,2015-07-06 19:46:00,
2015-07-06 16:01:00,79.2,63.0,30.12,SSW,192,1.0,8.0,58,0.00,,,0.00,weatherlink.com 1.10,2015-07-06 20:01:00,
2015-07-06 16:16:00,79.4,63.0,30.12,SE,139,5.0,12.0,57,0.00,,,0.00,weatherlink.com 1.10,2015-07-06 20:16:00,
2015-07-06 16:46:00,79.3,62.0,30.11,SE,130,1.0,10.0,55,0.00,,,0.00,weatherlink.com 1.10,2015-07-06 20:46:00,
2015-07-06 17:01:00,80.0,61.0,30.11,SSW,193,9.0,11.0,52,0.00,,,0.00,weatherlink.com 1.10,2015-07-06 21:01:00,
2015-07-06 17:16:00,79.5,60.0,30.11,South,172,6.0,13.0,52,0.00,,,0.00,weatherlink.com 1.10,2015-07-06 21:16:00,
2015-07-06 17:31:00,79.0,61.0,30.11,SSE,149,4.0,12.0,54,0.00,,,0.00,weatherlink.com 1.10,2015-07-06 21:31:00,
2015-07-06 17:46:00,78.7,62.0,30.11,SSW,200,9.0,11.0,57,0.00,,,0.00,weatherlink.com 1.10,2015-07-06 21:46:00,
2015-07-06 18:16:00,76.7,62.0,30.10,SSE,167,3.0,9.0,60,0.00,,,0.00,weatherlink.com 1.10,2015-07-06 22:16:00,
2015-07-06 18:31:00,77.0,62.0,30.10,SSW,207,7.0,11.0,61,0.00,,,0.00,weatherlink.com 1.10,2015-07-06 22:31:00,
2015-07-06 18:46:00,76.7,63.0,30.10,SSW,201,6.0,8.0,63,0.00,,,0.00,weatherlink.com 1.10,2015-07-06 22:46:00,
2015-07-06 19:01:00,76.0,63.0,30.09,South,184,1.0,7.0,65,0.00,,,0.00,weatherlink.com 1.10,2015-07-06 23:01:00,
2015-07-06 19:16:00,76.3,64.0,30.09,SSE,155,0.0,6.0,66,0.00,,,0.00,weatherlink.com 1.10,2015-07-06 23:16:00,
2015-07-06 19:31:00,76.0,64.0,30.09,SSW,200,1.0,9.0,66,0.00,,,0.00,weatherlink.com 1.10,2015-07-06 23:31:00,
2015-07-06 19:46:00,75.0,64.0,30.09,South,172,1.0,4.0,68,0.00,,,0.00,weatherlink.com 1.10,2015-07-06 23:46:00,
2015-07-06 20:01:00,74.2,63.0,30.09,SSE,155,4.0,6.0,69,0.00,,,0.00,weatherlink.com 1.10,2015-07-07 00:01:00,
2015-07-06 20:16:00,73.5,64.0,30.09,South,170,2.0,7.0,72,0.00,,,0.00,weatherlink.com 1.10,2015-07-07 00:16:00,
2015-07-06 20:31:00,72.7,64.0,30.09,SSW,197,4.0,4.0,74,0.00,,,0.00,weatherlink.com 1.10,2015-07-07 00:31:00,
2015-07-06 20:46:00,72.1,64.0,30.08,South,184,5.0,7.0,76,0.00,,,0.00,weatherlink.com 1.10,2015-07-07 00:46:00,
2015-07-06 21:01:00,71.8,64.0,30.08,South,181,3.0,8.0,77,0.00,,,0.00,weatherlink.com 1.10,2015-07-07 01:01:00,
2015-07-06 21:16:00,71.6,64.0,30.08,SE,143,2.0,7.0,78,0.00,,,0.00,weatherlink.com 1.10,2015-07-07 01:16:00,
2015-07-06 21:46:00,71.5,64.0,30.08,South,179,5.0,8.0,78,0.00,,,0.00,weatherlink.com 1.10,2015-07-07 01:46:00,
2015-07-06 22:01:00,71.2,64.0,30.08,SSW,198,3.0,5.0,79,0.00,,,0.00,weatherlink.com 1.10,2015-07-07 02:01:00,
2015-07-06 22:16:00,71.2,64.0,30.08,SSW,200,7.0,10.0,79,0.00,,,0.00,weatherlink.com 1.10,2015-07-07 02:16:00,
2015-07-06 22:31:00,71.2,65.0,30.08,South,186,6.0,9.0,80,0.00,,,0.00,weatherlink.com 1.10,2015-07-07 02:31:00,